,,,PA_Meas_PMT16A,,PR_Meas_QMR101_102,,RH_Meas_QMH101,,SR_Meas_QMS101,,TA_Meas_QMH101,,GenWind,,GenWind,
date,time,status,PA,status,PR,status,RH,status,SR,status,TA,status,DirAvg,status,SpdAvg,
2011-11-25, 00:00:05,VALID,1003.04,VALID,0,VALID,94.8041,VALID,0,VALID,24.0132,VALID,8,VALID,0.278516,
2011-11-25, 00:01:05,VALID,1003.04,VALID,0,VALID,94.7965,VALID,0,VALID,24.0345,VALID,8,VALID,0.366016,
2011-11-25, 00:02:05,VALID,1003.01,VALID,0,VALID,94.8117,VALID,0,VALID,24.0557,VALID,8,VALID,0.299219,
2011-11-25, 00:03:05,VALID,1003,VALID,0,VALID,94.8651,VALID,0,VALID,24.0114,VALID,8,VALID,0.466016,
2011-11-25, 00:04:05,VALID,1002.98,VALID,0,VALID,94.8346,VALID,0,VALID,24.015,VALID,8,VALID,0.448438,
2011-11-25, 00:05:05,VALID,1002.98,VALID,0,VALID,94.766,VALID,0,VALID,23.9937,VALID,8,VALID,0.428906,
2011-11-25, 00:06:05,VALID,1002.98,VALID,0,VALID,94.766,VALID,0,VALID,23.9955,VALID,8,VALID,0.608594,
2011-11-25, 00:07:05,VALID,1002.96,VALID,0,VALID,94.8041,VALID,0,VALID,23.953,VALID,8,VALID,0.612891,
2011-11-25, 00:08:05,VALID,1002.96,VALID,0,VALID,94.8499,VALID,0,VALID,23.9548,VALID,8,VALID,0.579687,
2011-11-25, 00:09:05,VALID,1002.97,VALID,0,VALID,94.8422,VALID,0,VALID,23.9548,VALID,8,VALID,0.592578,
2011-11-25, 00:10:05,VALID,1002.96,VALID,0,VALID,94.8499,VALID,0,VALID,23.9353,VALID,8,VALID,0.672266,
2011-11-25, 00:11:05,VALID,1002.95,VALID,0,VALID,94.8728,VALID,0,VALID,23.9566,VALID,6,VALID,0.647656,
2011-11-25, 00:12:05,VALID,1002.93,VALID,0,VALID,94.8194,VALID,0,VALID,23.9371,VALID,6,VALID,0.585156,
2011-11-25, 00:13:05,VALID,1002.94,VALID,0,VALID,94.827,VALID,0,VALID,23.8769,VALID,6,VALID,0.477734,
2011-11-25, 00:14:05,VALID,1002.89,VALID,0,VALID,94.9109,VALID,0,VALID,23.9177,VALID,6,VALID,0.548828,
2011-11-25, 00:15:05,VALID,1002.86,VALID,0,VALID,95.0024,VALID,0,VALID,23.9177,VALID,6,VALID,0.542969,
2011-11-25, 00:16:05,VALID,1002.85,VALID,0,VALID,95.033,VALID,0,VALID,23.914,VALID,6,VALID,0.58125,
2011-11-25, 00:17:05,VALID,1002.8,VALID,0,VALID,95.033,VALID,0.0815089,VALID,23.9353,VALID,6,VALID,0.344922,
2011-11-25, 00:18:05,VALID,1002.78,VALID,0,VALID,94.9872,VALID,0.0815089,VALID,23.9353,VALID,6,VALID,0.315625,
2011-11-25, 00:19:05,VALID,1002.77,VALID,0,VALID,94.9796,VALID,0.0815089,VALID,23.8946,VALID,6,VALID,0.216797,
2011-11-25, 00:20:05,VALID,1002.75,VALID,0,VALID,94.949,VALID,0.0815089,VALID,23.8946,VALID,6,VALID,0.175391,
2011-11-25, 00:21:05,VALID,1002.75,VALID,0,VALID,94.9414,VALID,0,VALID,23.8964,VALID,6,VALID,0,
2011-11-25, 00:22:05,VALID,1002.75,VALID,0,VALID,94.9414,VALID,0.0815089,VALID,23.8751,VALID,6,VALID,0,
2011-11-25, 00:23:05,VALID,1002.72,VALID,0,VALID,94.9414,VALID,0.0815089,VALID,23.8769,VALID,6,VALID,0,
2011-11-25, 00:24:05,VALID,1002.71,VALID,0,VALID,94.9262,VALID,0.0815089,VALID,23.8787,VALID,6,VALID,0,
2011-11-25, 00:25:05,VALID,1002.64,VALID,0,VALID,94.9567,VALID,0.0815089,VALID,23.8575,VALID,6,VALID,0.297266,
2011-11-25, 00:26:05,VALID,1002.65,VALID,0,VALID,94.9872,VALID,0.0815089,VALID,23.8362,VALID,6,VALID,0.301953,
2011-11-25, 00:27:05,VALID,1002.68,VALID,0,VALID,94.9948,VALID,0,VALID,23.8556,VALID,6,VALID,0.40625,
2011-11-25, 00:28:05,VALID,1002.65,VALID,0,VALID,94.9796,VALID,0.0815089,VALID,23.8556,VALID,6,VALID,0.521094,
2011-11-25, 00:29:05,VALID,1002.66,VALID,0,VALID,94.9185,VALID,0,VALID,23.8362,VALID,6,VALID,0.549219,
2011-11-25, 00:30:05,VALID,1002.66,VALID,0,VALID,94.8651,VALID,0.0815089,VALID,23.838,VALID,6,VALID,0.596484,
2011-11-25, 00:31:05,VALID,1002.66,VALID,0,VALID,94.7888,VALID,0,VALID,23.838,VALID,6,VALID,0.558594,
2011-11-25, 00:32:05,VALID,1002.63,VALID,0,VALID,94.8041,VALID,0.0815089,VALID,23.7778,VALID,6,VALID,0.586719,
2011-11-25, 00:33:05,VALID,1002.64,VALID,0,VALID,94.8194,VALID,0,VALID,23.7991,VALID,6,VALID,0.546875,
2011-11-25, 00:34:05,VALID,1002.6,VALID,0,VALID,94.8651,VALID,0,VALID,23.7973,VALID,6,VALID,0.498437,
2011-11-25, 00:35:05,VALID,1002.61,VALID,0,VALID,94.9033,VALID,0,VALID,23.7973,VALID,6,VALID,0.542969,
2011-11-25, 00:36:05,VALID,1002.61,VALID,0,VALID,94.8651,VALID,0,VALID,23.8185,VALID,6,VALID,0.581641,
2011-11-25, 00:37:05,VALID,1002.59,VALID,0,VALID,94.8346,VALID,0,VALID,23.8185,VALID,6,VALID,0.532422,
2011-11-25, 00:38:05,VALID,1002.58,VALID,0,VALID,94.8422,VALID,0,VALID,23.838,VALID,6,VALID,0.511719,
2011-11-25, 00:39:05,VALID,1002.56,VALID,0,VALID,94.8575,VALID,0,VALID,23.838,VALID,6,VALID,0.525391,
2011-11-25, 00:40:05,VALID,1002.55,VALID,0,VALID,94.8346,VALID,0,VALID,23.8185,VALID,6,VALID,0.485938,
2011-11-25, 00:41:05,VALID,1002.53,VALID,0,VALID,94.8651,VALID,0,VALID,23.8167,VALID,6,VALID,0.571094,
2011-11-25, 00:42:05,VALID,1002.51,VALID,0,VALID,94.8499,VALID,0,VALID,23.8185,VALID,6,VALID,0.572266,
2011-11-25, 00:43:05,VALID,1002.48,VALID,0,VALID,94.8804,VALID,0.0815089,VALID,23.838,VALID,6,VALID,0.538281,
2011-11-25, 00:44:05,VALID,1002.47,VALID,0,VALID,94.8804,VALID,0,VALID,23.7973,VALID,6,VALID,0.541797,
2011-11-25, 00:45:05,VALID,1002.41,VALID,0,VALID,94.8194,VALID,0,VALID,23.7778,VALID,6,VALID,0.580469,
2011-11-25, 00:46:05,VALID,1002.42,VALID,0,VALID,94.8804,VALID,0.0815089,VALID,23.7991,VALID,6,VALID,0.700781,
2011-11-25, 00:47:05,VALID,1002.45,VALID,0,VALID,94.8651,VALID,0,VALID,23.7778,VALID,6,VALID,0.664063,
2011-11-25, 00:48:05,VALID,1002.42,VALID,0,VALID,94.8728,VALID,0,VALID,23.7796,VALID,6,VALID,0.724609,
2011-11-25, 00:49:05,VALID,1002.44,VALID,0,VALID,94.8575,VALID,0,VALID,23.7796,VALID,6,VALID,0.771875,
2011-11-25, 00:50:05,VALID,1002.43,VALID,0,VALID,94.827,VALID,0.0815089,VALID,23.7389,VALID,5,VALID,0.665625,
2011-11-25, 00:51:05,VALID,1002.43,VALID,0,VALID,94.827,VALID,0.0815089,VALID,23.7601,VALID,5,VALID,0.578906,
2011-11-25, 00:52:05,VALID,1002.4,VALID,0,VALID,94.8728,VALID,0,VALID,23.7407,VALID,5,VALID,0.607813,
2011-11-25, 00:53:05,VALID,1002.38,VALID,0,VALID,94.9033,VALID,0,VALID,23.7212,VALID,5,VALID,0.522656,
2011-11-25, 00:54:05,VALID,1002.42,VALID,0,VALID,94.9185,VALID,0,VALID,23.7,VALID,5,VALID,0.567969,
2011-11-25, 00:55:05,VALID,1002.34,VALID,0,VALID,94.9185,VALID,0,VALID,23.7212,VALID,5,VALID,0.512109,
2011-11-25, 00:56:05,VALID,1002.33,VALID,0,VALID,94.9338,VALID,0,VALID,23.7212,VALID,5,VALID,0.408594,
2011-11-25, 00:57:05,VALID,1002.34,VALID,0,VALID,94.9262,VALID,0,VALID,23.7017,VALID,5,VALID,0.467969,
2011-11-25, 00:58:05,VALID,1002.34,VALID,0,VALID,94.9414,VALID,0,VALID,23.7017,VALID,5,VALID,0.471875,
2011-11-25, 00:59:05,VALID,1002.34,VALID,0,VALID,94.9567,VALID,0,VALID,23.6823,VALID,5,VALID,0.497266,
2011-11-25, 01:00:05,VALID,1002.3,VALID,0,VALID,94.9719,VALID,0,VALID,23.6823,VALID,5,VALID,0.514453,
2011-11-25, 01:01:05,VALID,1002.31,VALID,0,VALID,94.9643,VALID,0,VALID,23.6823,VALID,5,VALID,0.464844,
2011-11-25, 01:02:05,VALID,1002.29,VALID,0,VALID,94.9796,VALID,0,VALID,23.6628,VALID,5,VALID,0.414844,
2011-11-25, 01:03:05,VALID,1002.29,VALID,0,VALID,94.9185,VALID,0,VALID,23.6628,VALID,5,VALID,0.452734,
2011-11-25, 01:04:05,VALID,1002.26,VALID,0,VALID,94.949,VALID,0,VALID,23.6452,VALID,5,VALID,0.398047,
2011-11-25, 01:05:05,VALID,1002.25,VALID,0,VALID,94.9338,VALID,0,VALID,23.6434,VALID,5,VALID,0.414063,
2011-11-25, 01:06:05,VALID,1002.23,VALID,0,VALID,94.949,VALID,0,VALID,23.6044,VALID,5,VALID,0.332031,
2011-11-25, 01:07:05,VALID,1002.23,VALID,0,VALID,94.9567,VALID,0,VALID,23.6044,VALID,4,VALID,0.351172,
2011-11-25, 01:08:05,VALID,1002.2,VALID,0,VALID,94.9414,VALID,0,VALID,23.6044,VALID,4,VALID,0.348437,
2011-11-25, 01:09:05,VALID,1002.19,VALID,0,VALID,94.9567,VALID,0,VALID,23.5637,VALID,4,VALID,0.377344,
2011-11-25, 01:10:05,VALID,1002.18,VALID,0,VALID,94.9872,VALID,0.0815089,VALID,23.6044,VALID,4,VALID,0.390625,
2011-11-25, 01:11:05,VALID,1002.18,VALID,0,VALID,95.0024,VALID,0.0815089,VALID,23.585,VALID,4,VALID,0.458594,
2011-11-25, 01:12:05,VALID,1002.18,VALID,0,VALID,95.0253,VALID,0,VALID,23.585,VALID,4,VALID,0.514844,
2011-11-25, 01:13:05,VALID,1002.18,VALID,0,VALID,95.0482,VALID,0,VALID,23.5832,VALID,4,VALID,0.696875,
2011-11-25, 01:14:05,VALID,1002.16,VALID,0,VALID,95.0787,VALID,0,VALID,23.585,VALID,4,VALID,0.516797,
2011-11-25, 01:15:05,VALID,1002.16,VALID,0,VALID,95.0635,VALID,0,VALID,23.6239,VALID,4,VALID,0.591406,
2011-11-25, 01:16:05,VALID,1002.15,VALID,0,VALID,95.0558,VALID,0,VALID,23.6239,VALID,4,VALID,0.541016,
2011-11-25, 01:17:05,VALID,1002.16,VALID,0,VALID,94.9872,VALID,0,VALID,23.6239,VALID,4,VALID,0.508594,
2011-11-25, 01:18:05,VALID,1002.11,VALID,0,VALID,94.9643,VALID,0.0815089,VALID,23.6026,VALID,4,VALID,0.622656,
2011-11-25, 01:19:05,VALID,1002.13,VALID,0,VALID,94.9262,VALID,0,VALID,23.585,VALID,4,VALID,0.470313,
2011-11-25, 01:20:05,VALID,1002.11,VALID,0,VALID,94.8804,VALID,0,VALID,23.585,VALID,4,VALID,0.391016,
2011-11-25, 01:21:05,VALID,1002.09,VALID,0,VALID,94.8117,VALID,0,VALID,23.5443,VALID,4,VALID,0.457031,
2011-11-25, 01:22:05,VALID,1002.06,VALID,0,VALID,94.8041,VALID,0.0815089,VALID,23.546,VALID,4,VALID,0.366406,
2011-11-25, 01:23:05,VALID,1002.04,VALID,0,VALID,94.8041,VALID,0,VALID,23.4859,VALID,4,VALID,0.403516,
2011-11-25, 01:24:05,VALID,1002,VALID,0,VALID,94.8651,VALID,0,VALID,23.5071,VALID,4,VALID,0.346875,
2011-11-25, 01:25:05,VALID,1001.96,VALID,0,VALID,94.9109,VALID,0,VALID,23.4664,VALID,4,VALID,0.416797,
2011-11-25, 01:26:05,VALID,1001.96,VALID,0,VALID,94.9567,VALID,0.0815089,VALID,23.4859,VALID,4,VALID,0.430859,
2011-11-25, 01:27:05,VALID,1001.93,VALID,0,VALID,94.9796,VALID,0.0815089,VALID,23.5053,VALID,4,VALID,0.277734,
2011-11-25, 01:28:05,VALID,1001.91,VALID,0,VALID,94.9948,VALID,0.0815089,VALID,23.5071,VALID,4,VALID,0.4,
2011-11-25, 01:29:05,VALID,1001.89,VALID,0,VALID,95.0024,VALID,0,VALID,23.4859,VALID,4,VALID,0.367969,
2011-11-25, 01:30:05,VALID,1001.88,VALID,0,VALID,95.0024,VALID,0,VALID,23.4859,VALID,4,VALID,0.457031,
2011-11-25, 01:31:05,VALID,1001.88,VALID,0,VALID,95.0406,VALID,0,VALID,23.5071,VALID,4,VALID,0.516406,
2011-11-25, 01:32:05,VALID,1001.89,VALID,0,VALID,95.0635,VALID,0,VALID,23.5266,VALID,4,VALID,0.521875,
2011-11-25, 01:33:05,VALID,1001.86,VALID,0,VALID,95.0406,VALID,0,VALID,23.5071,VALID,4,VALID,0.693359,
2011-11-25, 01:34:05,VALID,1001.86,VALID,0,VALID,95.0101,VALID,0,VALID,23.5284,VALID,4,VALID,0.691016,
2011-11-25, 01:35:05,VALID,1001.86,VALID,0,VALID,95.0787,VALID,0,VALID,23.5266,VALID,4,VALID,0.536328,
2011-11-25, 01:36:05,VALID,1001.83,VALID,0,VALID,95.0406,VALID,0,VALID,23.5266,VALID,4,VALID,0.601172,
2011-11-25, 01:37:05,VALID,1001.78,VALID,0,VALID,94.9414,VALID,0,VALID,23.5071,VALID,4,VALID,0.607813,
2011-11-25, 01:38:05,VALID,1001.8,VALID,0,VALID,94.9185,VALID,0,VALID,23.5071,VALID,4,VALID,0.405469,
2011-11-25, 01:39:05,VALID,1001.75,VALID,0,VALID,94.9033,VALID,0,VALID,23.4664,VALID,4,VALID,0.400781,
2011-11-25, 01:40:05,VALID,1001.75,VALID,0,VALID,94.9185,VALID,0,VALID,23.447,VALID,4,VALID,0.409766,
2011-11-25, 01:41:05,VALID,1001.79,VALID,0,VALID,94.9567,VALID,0,VALID,23.4682,VALID,4,VALID,0.423828,
2011-11-25, 01:42:05,VALID,1001.73,VALID,0,VALID,94.9872,VALID,0,VALID,23.4877,VALID,4,VALID,0.292188,
2011-11-25, 01:43:05,VALID,1001.76,VALID,0,VALID,95.0253,VALID,0,VALID,23.447,VALID,4,VALID,0.304688,
2011-11-25, 01:44:05,VALID,1001.75,VALID,0,VALID,95.0558,VALID,0,VALID,23.4877,VALID,4,VALID,0.424609,
2011-11-25, 01:45:05,VALID,1001.77,VALID,0,VALID,95.0406,VALID,0,VALID,23.5071,VALID,4,VALID,0.473828,
2011-11-25, 01:46:05,VALID,1001.74,VALID,0,VALID,95.0482,VALID,0,VALID,23.5284,VALID,4,VALID,0.591406,
2011-11-25, 01:47:05,VALID,1001.71,VALID,0,VALID,95.0406,VALID,0,VALID,23.5284,VALID,4,VALID,0.419531,
2011-11-25, 01:48:05,VALID,1001.73,VALID,0,VALID,95.0482,VALID,0,VALID,23.5478,VALID,4,VALID,0.521875,
2011-11-25, 01:49:05,VALID,1001.71,VALID,0,VALID,95.033,VALID,0,VALID,23.5673,VALID,4,VALID,0.296484,
2011-11-25, 01:50:05,VALID,1001.72,VALID,0,VALID,95.0177,VALID,0,VALID,23.5248,VALID,4,VALID,0.384375,
2011-11-25, 01:51:05,VALID,1001.73,VALID,0,VALID,95.0024,VALID,0,VALID,23.5655,VALID,4,VALID,0.355469,
2011-11-25, 01:52:05,VALID,1001.72,VALID,0,VALID,94.9567,VALID,0,VALID,23.5868,VALID,4,VALID,0.40625,
2011-11-25, 01:53:05,VALID,1001.7,VALID,0,VALID,94.888,VALID,0,VALID,23.5868,VALID,4,VALID,0.404687,
2011-11-25, 01:54:05,VALID,1001.7,VALID,0,VALID,94.7965,VALID,0,VALID,23.5673,VALID,4,VALID,0.448438,
2011-11-25, 01:55:05,VALID,1001.69,VALID,0,VALID,94.827,VALID,0,VALID,23.546,VALID,4,VALID,0.442969,
2011-11-25, 01:56:05,VALID,1001.66,VALID,0,VALID,94.8422,VALID,0,VALID,23.5655,VALID,4,VALID,0.462109,
2011-11-25, 01:57:05,VALID,1001.63,VALID,0,VALID,94.8575,VALID,0,VALID,23.5673,VALID,4,VALID,0.378516,
2011-11-25, 01:58:05,VALID,1001.66,VALID,0,VALID,94.8346,VALID,0,VALID,23.546,VALID,4,VALID,0.453516,
2011-11-25, 01:59:05,VALID,1001.62,VALID,0,VALID,94.8804,VALID,0,VALID,23.5673,VALID,4,VALID,0.533984,
2011-11-25, 02:00:05,VALID,1001.61,VALID,0,VALID,94.9033,VALID,0,VALID,23.5868,VALID,4,VALID,0.515625,
2011-11-25, 02:01:05,VALID,1001.57,VALID,0,VALID,94.8651,VALID,0,VALID,23.585,VALID,4,VALID,0.558984,
2011-11-25, 02:02:05,VALID,1001.57,VALID,0,VALID,94.7507,VALID,0,VALID,23.5655,VALID,5,VALID,0.545703,
2011-11-25, 02:03:05,VALID,1001.57,VALID,0,VALID,94.7354,VALID,0,VALID,23.5655,VALID,6,VALID,0.561328,
2011-11-25, 02:04:05,VALID,1001.54,VALID,0,VALID,94.7202,VALID,0,VALID,23.5673,VALID,6,VALID,0.483203,
2011-11-25, 02:05:05,VALID,1001.53,VALID,0,VALID,94.7049,VALID,0,VALID,23.5673,VALID,6,VALID,0.389844,
2011-11-25, 02:06:05,VALID,1001.55,VALID,0,VALID,94.6668,VALID,0,VALID,23.5071,VALID,6,VALID,0.507422,
2011-11-25, 02:07:05,VALID,1001.53,VALID,0,VALID,94.6286,VALID,0,VALID,23.5089,VALID,6,VALID,0.427734,
2011-11-25, 02:08:05,VALID,1001.53,VALID,0,VALID,94.6668,VALID,0,VALID,23.4877,VALID,6,VALID,0.351172,
2011-11-25, 02:09:05,VALID,1001.53,VALID,0,VALID,94.6744,VALID,0,VALID,23.4682,VALID,6,VALID,0.3875,
2011-11-25, 02:10:05,VALID,1001.53,VALID,0,VALID,94.6439,VALID,0,VALID,23.4894,VALID,6,VALID,0.295312,
2011-11-25, 02:11:05,VALID,1001.52,VALID,0,VALID,94.6668,VALID,0,VALID,23.4894,VALID,6,VALID,0.328516,
2011-11-25, 02:12:05,VALID,1001.55,VALID,0,VALID,94.6591,VALID,0,VALID,23.47,VALID,6,VALID,0.260547,
2011-11-25, 02:13:05,VALID,1001.53,VALID,0,VALID,94.6363,VALID,0,VALID,23.4505,VALID,6,VALID,0.279687,
2011-11-25, 02:14:05,VALID,1001.53,VALID,0,VALID,94.621,VALID,0,VALID,23.4505,VALID,6,VALID,0.146484,
2011-11-25, 02:15:05,VALID,1001.54,VALID,0,VALID,94.6286,VALID,0,VALID,23.4311,VALID,6,VALID,0.110547,
2011-11-25, 02:16:05,VALID,1001.53,VALID,0,VALID,94.6897,VALID,0,VALID,23.4098,VALID,6,VALID,0.272656,
2011-11-25, 02:17:05,VALID,1001.54,VALID,0,VALID,94.7507,VALID,0,VALID,23.4505,VALID,6,VALID,0.430859,
2011-11-25, 02:18:05,VALID,1001.53,VALID,0,VALID,94.8194,VALID,0,VALID,23.4505,VALID,6,VALID,0.510938,
2011-11-25, 02:19:05,VALID,1001.52,VALID,0,VALID,94.7888,VALID,0,VALID,23.4505,VALID,6,VALID,0.451953,
2011-11-25, 02:20:05,VALID,1001.52,VALID,0,VALID,94.7431,VALID,0,VALID,23.4505,VALID,6,VALID,0.388281,
2011-11-25, 02:21:05,VALID,1001.47,VALID,0,VALID,94.8117,VALID,0,VALID,23.4487,VALID,6,VALID,0.475781,
2011-11-25, 02:22:05,VALID,1001.5,VALID,0,VALID,94.7736,VALID,0,VALID,23.4487,VALID,6,VALID,0.374219,
2011-11-25, 02:23:05,VALID,1001.45,VALID,0,VALID,94.6439,VALID,0,VALID,23.4505,VALID,6,VALID,0.405078,
2011-11-25, 02:24:05,VALID,1001.5,VALID,0,VALID,94.7202,VALID,0,VALID,23.4098,VALID,6,VALID,0.357031,
2011-11-25, 02:25:05,VALID,1001.47,VALID,0,VALID,94.6668,VALID,0,VALID,23.4311,VALID,6,VALID,0.207813,
2011-11-25, 02:26:05,VALID,1001.46,VALID,0,VALID,94.6744,VALID,0,VALID,23.3921,VALID,6,VALID,0.192188,
2011-11-25, 02:27:05,VALID,1001.43,VALID,0,VALID,94.7202,VALID,0,VALID,23.3709,VALID,6,VALID,0.255469,
2011-11-25, 02:28:05,VALID,1001.44,VALID,0,VALID,94.7278,VALID,0,VALID,23.3709,VALID,6,VALID,0.378906,
2011-11-25, 02:29:05,VALID,1001.42,VALID,0,VALID,94.6973,VALID,0,VALID,23.3514,VALID,6,VALID,0.275,
2011-11-25, 02:30:05,VALID,1001.41,VALID,0,VALID,94.7125,VALID,0,VALID,23.3532,VALID,6,VALID,0.125,
2011-11-25, 02:31:05,VALID,1001.41,VALID,0,VALID,94.7583,VALID,0,VALID,23.3514,VALID,6,VALID,0.176563,
2011-11-25, 02:32:05,VALID,1001.39,VALID,0,VALID,94.8499,VALID,0,VALID,23.3709,VALID,6,VALID,0.276172,
2011-11-25, 02:33:05,VALID,1001.36,VALID,0,VALID,94.8804,VALID,0,VALID,23.3921,VALID,6,VALID,0.282813,
2011-11-25, 02:34:05,VALID,1001.39,VALID,0,VALID,94.8804,VALID,0,VALID,23.3709,VALID,6,VALID,0.399219,
2011-11-25, 02:35:05,VALID,1001.37,VALID,0,VALID,94.8575,VALID,0,VALID,23.3709,VALID,6,VALID,0.413281,
2011-11-25, 02:36:04,VALID,1001.41,VALID,0,VALID,94.8117,VALID,0,VALID,23.3514,VALID,6,VALID,0.376953,
2011-11-25, 02:37:04,VALID,1001.38,VALID,0,VALID,94.6897,VALID,0,VALID,23.3532,VALID,6,VALID,0.394922,
2011-11-25, 02:38:04,VALID,1001.38,VALID,0,VALID,94.6744,VALID,0,VALID,23.3143,VALID,6,VALID,0.505078,
2011-11-25, 02:39:04,VALID,1001.39,VALID,0,VALID,94.7354,VALID,0,VALID,23.2948,VALID,6,VALID,0.320313,
2011-11-25, 02:40:04,VALID,1001.39,VALID,0,VALID,94.8041,VALID,0,VALID,23.2948,VALID,6,VALID,0.298438,
2011-11-25, 02:41:04,VALID,1001.38,VALID,0,VALID,94.8194,VALID,0,VALID,23.2736,VALID,6,VALID,0.300781,
2011-11-25, 02:42:04,VALID,1001.4,VALID,0,VALID,94.827,VALID,0,VALID,23.2736,VALID,6,VALID,0.236719,
2011-11-25, 02:43:04,VALID,1001.4,VALID,0,VALID,94.8499,VALID,0,VALID,23.2948,VALID,6,VALID,0.280078,
2011-11-25, 02:44:04,VALID,1001.39,VALID,0,VALID,94.8956,VALID,0,VALID,23.3143,VALID,6,VALID,0.391016,
2011-11-25, 02:45:04,VALID,1001.38,VALID,0,VALID,94.9185,VALID,0,VALID,23.2931,VALID,6,VALID,0.423438,
2011-11-25, 02:46:04,VALID,1001.38,VALID,0,VALID,94.8804,VALID,0,VALID,23.2718,VALID,6,VALID,0.378906,
2011-11-25, 02:47:04,VALID,1001.34,VALID,0,VALID,94.8804,VALID,0.0815089,VALID,23.2718,VALID,6,VALID,0.450781,
2011-11-25, 02:48:04,VALID,1001.35,VALID,0,VALID,94.8728,VALID,0.0815089,VALID,23.2524,VALID,6,VALID,0.392969,
2011-11-25, 02:49:04,VALID,1001.33,VALID,0,VALID,94.9414,VALID,0.0815089,VALID,23.2524,VALID,6,VALID,0.330859,
2011-11-25, 02:50:04,VALID,1001.29,VALID,0,VALID,94.9262,VALID,0.0815089,VALID,23.2718,VALID,6,VALID,0.460156,
2011-11-25, 02:51:04,VALID,1001.29,VALID,0,VALID,94.9262,VALID,0.0815089,VALID,23.2524,VALID,6,VALID,0.437891,
2011-11-25, 02:52:04,VALID,1001.27,VALID,0,VALID,94.9262,VALID,0.0815089,VALID,23.2524,VALID,6,VALID,0.345313,
2011-11-25, 02:53:04,VALID,1001.27,VALID,0,VALID,94.9033,VALID,0.0815089,VALID,23.2718,VALID,6,VALID,0.159766,
2011-11-25, 02:54:04,VALID,1001.26,VALID,0,VALID,94.888,VALID,0.0815089,VALID,23.2524,VALID,6,VALID,0,
2011-11-25, 02:55:04,VALID,1001.27,VALID,0,VALID,94.8499,VALID,0.0815089,VALID,23.2311,VALID,6,VALID,0,
2011-11-25, 02:56:04,VALID,1001.27,VALID,0,VALID,94.8346,VALID,0.0815089,VALID,23.2117,VALID,6,VALID,0.1,
2011-11-25, 02:57:04,VALID,1001.25,VALID,0,VALID,94.8346,VALID,0.0815089,VALID,23.1922,VALID,6,VALID,0.203906,
2011-11-25, 02:58:04,VALID,1001.21,VALID,0,VALID,94.8194,VALID,0.0815089,VALID,23.2347,VALID,6,VALID,0.275391,
2011-11-25, 02:59:04,VALID,1001.2,VALID,0,VALID,94.8499,VALID,0.0815089,VALID,23.1745,VALID,6,VALID,0.494922,
2011-11-25, 03:00:04,VALID,1001.18,VALID,0,VALID,94.8728,VALID,0.0815089,VALID,23.1957,VALID,6,VALID,0.319141,
2011-11-25, 03:01:04,VALID,1001.15,VALID,0,VALID,94.8804,VALID,0,VALID,23.178,VALID,6,VALID,0.242969,
2011-11-25, 03:02:04,VALID,1001.14,VALID,0,VALID,94.8575,VALID,0,VALID,23.1586,VALID,6,VALID,0.3,
2011-11-25, 03:03:04,VALID,1001.13,VALID,0,VALID,94.827,VALID,0,VALID,23.1374,VALID,6,VALID,0.3,
2011-11-25, 03:04:04,VALID,1001.1,VALID,0,VALID,94.8499,VALID,0,VALID,23.1179,VALID,6,VALID,0.388672,
2011-11-25, 03:05:04,VALID,1001.12,VALID,0,VALID,94.8499,VALID,0,VALID,23.0984,VALID,6,VALID,0.426953,
2011-11-25, 03:06:04,VALID,1001.08,VALID,0,VALID,94.8346,VALID,0,VALID,23.0772,VALID,6,VALID,0.472266,
2011-11-25, 03:07:04,VALID,1001.1,VALID,0,VALID,94.827,VALID,0,VALID,23.1002,VALID,6,VALID,0.286719,
2011-11-25, 03:08:04,VALID,1001.09,VALID,0,VALID,94.8499,VALID,0,VALID,23.1002,VALID,6,VALID,0.321875,
2011-11-25, 03:09:04,VALID,1001.09,VALID,0,VALID,94.8422,VALID,0,VALID,23.0595,VALID,6,VALID,0.207813,
2011-11-25, 03:10:04,VALID,1001.09,VALID,0,VALID,94.8575,VALID,0,VALID,23.0401,VALID,6,VALID,0.227734,
2011-11-25, 03:11:04,VALID,1001.12,VALID,0,VALID,94.8651,VALID,0,VALID,23.0595,VALID,6,VALID,0.144922,
2011-11-25, 03:12:04,VALID,1001.09,VALID,0,VALID,94.8728,VALID,0,VALID,23.0401,VALID,6,VALID,0.225391,
2011-11-25, 03:13:04,VALID,1001.06,VALID,0,VALID,94.9033,VALID,0,VALID,23.0401,VALID,6,VALID,0.254687,
2011-11-25, 03:14:04,VALID,1001.04,VALID,0,VALID,94.9338,VALID,0,VALID,23.0595,VALID,6,VALID,0.504297,
2011-11-25, 03:15:04,VALID,1001.05,VALID,0,VALID,94.9338,VALID,0,VALID,23.0401,VALID,6,VALID,0.431641,
2011-11-25, 03:16:04,VALID,1001.03,VALID,0,VALID,94.9338,VALID,0,VALID,23.0401,VALID,6,VALID,0.353125,
2011-11-25, 03:17:04,VALID,1001.03,VALID,0,VALID,94.9033,VALID,0,VALID,23.0595,VALID,6,VALID,0.367578,
2011-11-25, 03:18:04,VALID,1001.01,VALID,0,VALID,94.888,VALID,0,VALID,23.0613,VALID,6,VALID,0.285937,
2011-11-25, 03:19:04,VALID,1000.99,VALID,0,VALID,94.8728,VALID,0,VALID,23.0613,VALID,6,VALID,0.254687,
2011-11-25, 03:20:04,VALID,1001,VALID,0,VALID,94.8804,VALID,0,VALID,23.0189,VALID,6,VALID,0.221484,
2011-11-25, 03:21:04,VALID,1001.03,VALID,0,VALID,94.8804,VALID,0,VALID,23.0206,VALID,6,VALID,0.172656,
2011-11-25, 03:22:04,VALID,1000.98,VALID,0,VALID,94.888,VALID,0,VALID,23.0206,VALID,6,VALID,0.287109,
2011-11-25, 03:23:04,VALID,1001,VALID,0,VALID,94.9109,VALID,0,VALID,23.0418,VALID,6,VALID,0.260547,
2011-11-25, 03:24:04,VALID,1001.01,VALID,0,VALID,94.8575,VALID,0,VALID,23.0012,VALID,6,VALID,0.286719,
2011-11-25, 03:25:04,VALID,1001.04,VALID,0,VALID,94.8651,VALID,0,VALID,23.0224,VALID,6,VALID,0.340234,
2011-11-25, 03:26:04,VALID,1001.04,VALID,0,VALID,94.9262,VALID,0,VALID,23.0012,VALID,6,VALID,0.375391,
2011-11-25, 03:27:04,VALID,1001.04,VALID,0,VALID,94.9033,VALID,0,VALID,23.0206,VALID,6,VALID,0.314063,
2011-11-25, 03:28:04,VALID,1001.05,VALID,0,VALID,94.8804,VALID,0,VALID,23.0012,VALID,6,VALID,0.299219,
2011-11-25, 03:29:04,VALID,1001.03,VALID,0,VALID,94.8651,VALID,0,VALID,23.0012,VALID,6,VALID,0.263672,
2011-11-25, 03:30:04,VALID,1001.02,VALID,0,VALID,94.888,VALID,0,VALID,23.0029,VALID,6,VALID,0.262109,
2011-11-25, 03:31:04,VALID,1001.02,VALID,0,VALID,94.8956,VALID,0.0815089,VALID,23.0206,VALID,6,VALID,0.289453,
2011-11-25, 03:32:04,VALID,1001.01,VALID,0,VALID,94.9719,VALID,0.0815089,VALID,22.9994,VALID,6,VALID,0.357812,
2011-11-25, 03:33:04,VALID,1001.03,VALID,0,VALID,95.0101,VALID,0.0815089,VALID,23.0189,VALID,6,VALID,0.382031,
2011-11-25, 03:34:04,VALID,1001.01,VALID,0,VALID,95.0406,VALID,0.0815089,VALID,23.0189,VALID,6,VALID,0.45,
2011-11-25, 03:35:04,VALID,1001,VALID,0,VALID,95.0558,VALID,0,VALID,23.0401,VALID,6,VALID,0.402734,
2011-11-25, 03:36:04,VALID,1001.03,VALID,0,VALID,95.1321,VALID,0.0815089,VALID,23.0383,VALID,6,VALID,0.505078,
2011-11-25, 03:37:04,VALID,1001.03,VALID,0,VALID,95.1321,VALID,0.0815089,VALID,23.0383,VALID,6,VALID,0.388672,
2011-11-25, 03:38:04,VALID,1001.02,VALID,0,VALID,95.1398,VALID,0.0815089,VALID,23.0578,VALID,6,VALID,0.367578,
2011-11-25, 03:39:04,VALID,1001,VALID,0,VALID,95.1169,VALID,0.0815089,VALID,23.0578,VALID,6,VALID,0.33125,
2011-11-25, 03:40:04,VALID,1001,VALID,0,VALID,95.1398,VALID,0.0815089,VALID,23.0772,VALID,6,VALID,0.307813,
2011-11-25, 03:41:04,VALID,1001.01,VALID,0,VALID,95.1855,VALID,0.0815089,VALID,23.0772,VALID,6,VALID,0.255859,
2011-11-25, 03:42:04,VALID,1000.97,VALID,0,VALID,95.2084,VALID,0.163018,VALID,23.0967,VALID,6,VALID,0.280469,
2011-11-25, 03:43:04,VALID,1000.99,VALID,0,VALID,95.2008,VALID,0.0815089,VALID,23.0967,VALID,6,VALID,0.248437,
2011-11-25, 03:44:04,VALID,1000.97,VALID,0,VALID,95.1627,VALID,0.0815089,VALID,23.0772,VALID,6,VALID,0.252734,
2011-11-25, 03:45:04,VALID,1000.96,VALID,0,VALID,95.1855,VALID,0.0815089,VALID,23.0772,VALID,6,VALID,0.239453,